This is the latest recevied weather packets stored in our database for station/object CE7LGA-10. If no packets are shown the sender has not sent any weather packets the latest 10 day(s).
| Time | Temp. | Humidity | Pressure | Rain* | Wind** | Luminosity | Snow |
|---|---|---|---|---|---|---|---|
| 1778164631 | 13.33° C | 68% | 1014.3 hPa | - | - | - | - |
| 1778163730 | 12.78° C | 68% | 1014.4 hPa | - | - | - | - |
| 1778162830 | 12.78° C | 69% | 1014.6 hPa | - | - | - | - |
| 1778161930 | 12.78° C | 68% | 1014.7 hPa | - | - | - | - |
| 1778161030 | 12.22° C | 68% | 1014.8 hPa | - | - | - | - |
| 1778160130 | 12.22° C | 68% | 1014.6 hPa | - | - | - | - |
| 1778159230 | 12.22° C | 68% | 1014.4 hPa | - | - | - | - |
| 1778158330 | 12.22° C | 68% | 1014.5 hPa | - | - | - | - |
| 1778157433 | 12.22° C | 68% | 1014.3 hPa | - | - | - | - |
| 1778156533 | 12.22° C | 70% | 1014.2 hPa | - | - | - | - |
| 1778155633 | 12.22° C | 68% | 1014.2 hPa | - | - | - | - |
| 1778154732 | 12.22° C | 68% | 1014.3 hPa | - | - | - | - |
| 1778153832 | 12.22° C | 67% | 1014.2 hPa | - | - | - | - |
| 1778152932 | 12.22° C | 68% | 1014 hPa | - | - | - | - |
| 1778152032 | 12.22° C | 71% | 1014 hPa | - | - | - | - |
| 1778151132 | 12.22° C | 68% | 1014.1 hPa | - | - | - | - |
| 1778150231 | 11.67° C | 66% | 1013.8 hPa | - | - | - | - |
| 1778149331 | 11.67° C | 66% | 1013.7 hPa | - | - | - | - |
| 1778148431 | 11.67° C | 66% | 1013.6 hPa | - | - | - | - |
| 1778147531 | 11.67° C | 66% | 1013.5 hPa | - | - | - | - |
| 1778146631 | 11.67° C | 66% | 1013.6 hPa | - | - | - | - |
| 1778145731 | 11.67° C | 65% | 1013.6 hPa | - | - | - | - |
| 1778144831 | 11.67° C | 66% | 1013.6 hPa | - | - | - | - |
| 1778143931 | 11.67° C | 65% | 1013.8 hPa | - | - | - | - |
| 1778143031 | 12.22° C | 65% | 1013.3 hPa | - | - | - | - |
* Rain since midnight (hover to see other rain measurements)
** Current wind speed in m/s (hover to see current wind gust speed)